Sidney, NE

3:21 PM MDT on April 21, 2018 (GMT -0600)
Sidney Municipal

Weather History for KSNY - May, 2013

Change the Weather History Date:

Monday, May 27, 2013

  Actual Average Record
Temperature  
Mean Temperature 65 °F 61 °F  
Max Temperature 83 °F 75 °F 95 °F (2006)
Min Temperature 46 °F 47 °F 30 °F (1950)
Degree Days  
Heating Degree Days 0 5  
Month to date heating degree days 264 231  
Since 1 July heating degree days 6614 6143  
Cooling Degree Days 0 1  
Month to date cooling degree days 33 18  
Year to date cooling degree days 33 19  
Growing Degree Days 16 (Base 50)    
Moisture  
Dew Point 51 °F    
Average Humidity 59    
Maximum Humidity 87    
Minimum Humidity 30    
Precipitation  
Precipitation 0.52 in 0.11 in 0.82 in (1977)
Month to date precipitation 1.41 2.65  
Year to date precipitation 4.10 6.32  
Sea Level Pressure  
Sea Level Pressure 29.73 in    
Wind  
Wind Speed 11 mph (ESE)    
Max Wind Speed 31 mph    
Max Gust Speed 40 mph    
Visibility 9 miles    
Events Rain , Thunderstorm    
T = Trace of Precipitation, MM = Missing Value Source: NWS Daily Summary

Daily Weather History Graph

Daily Weather History Graph

Search for Another Location

Airport or City:

Astronomy

May. 27, 2013 Rise Set
Actual Time 5:24 AM MDT 8:14 PM MDT
Civil Twilight 4:51 AM MDT 8:47 PM MDT
Nautical Twilight 4:10 AM MDT 9:28 PM MDT
Astronomical Twilight 3:23 AM MDT 10:15 PM MDT
Moon 10:54 PM MDT (5/27) 8:04 AM MDT (5/27)
Length of Visible Light 15h 55m
Length of Day
14h 50m
Waning Gibbous, 90% of the Moon is Illuminated
May 27
Waning Gibbous
May 31
Last Quarter
Jun 8
New
Jun 16
First Quarter
Jun 23
Full

Hourly Weather History & Observations

Time (MDT) Temp. Heat Index Dew Point Humidity Pressure Visibility Wind Dir Wind Speed Gust Speed Precip Events Conditions
12:26 AM 66.2 °F - 57.2 °F 73% 29.84 in 10.0 mi ENE 20.7 mph 29.9 mph N/A   Mostly Cloudy
12:50 AM 66.2 °F - 59.0 °F 78% 29.89 in 10.0 mi SW 4.6 mph - N/A Thunderstorm Partly Cloudy
12:53 AM 66.0 °F - 59.0 °F 78% 29.73 in 10.0 mi Calm Calm - N/A Thunderstorm Partly Cloudy
1:21 AM 64.4 °F - 60.8 °F 88% 29.88 in 10.0 mi North 5.8 mph - 0.02 in Rain , Thunderstorm Light Rain
1:53 AM 66.0 °F - 60.1 °F 81% 29.66 in 10.0 mi NW 10.4 mph - 0.02 in Rain , Thunderstorm Light Rain
2:01 AM 73.4 °F - 41.0 °F 31% 29.81 in 10.0 mi West 17.3 mph 36.8 mph 0.00 in Rain Light Rain
2:08 AM 75.2 °F - 39.2 °F 27% 29.83 in 10.0 mi West 16.1 mph 29.9 mph 0.00 in Thunderstorm Mostly Cloudy
2:16 AM 68.0 °F - 55.4 °F 64% 29.86 in 10.0 mi SSW 18.4 mph 29.9 mph 0.00 in Thunderstorm Mostly Cloudy
2:23 AM 69.8 °F - 50.0 °F 49% 29.86 in 10.0 mi SW 9.2 mph 29.9 mph 0.00 in Rain Light Rain
2:46 AM 73.4 °F - 37.4 °F 27% 29.81 in 10.0 mi West 23.0 mph 33.4 mph 0.01 in   Overcast
2:53 AM 73.9 °F - 37.9 °F 27% 29.61 in 10.0 mi NW 13.8 mph 33.4 mph 0.01 in   Mostly Cloudy
3:37 AM 66.2 °F - 57.2 °F 73% 29.80 in 10.0 mi SE 13.8 mph 20.7 mph N/A   Clear
3:53 AM 64.9 °F - 60.1 °F 84% 29.65 in 10.0 mi SE 9.2 mph 18.4 mph N/A   Scattered Clouds
4:53 AM 66.9 °F - 55.9 °F 68% 29.65 in 10.0 mi ESE 8.1 mph - N/A   Mostly Cloudy
5:53 AM 64.0 °F - 57.9 °F 80% 29.62 in 10.0 mi WNW 6.9 mph - N/A   Mostly Cloudy
6:53 AM 66.0 °F - 57.0 °F 73% 29.65 in 10.0 mi SE 6.9 mph - N/A   Mostly Cloudy
7:53 AM 64.0 °F - 53.1 °F 67% 29.69 in 10.0 mi WNW 8.1 mph - N/A   Clear
8:53 AM 71.1 °F - 55.0 °F 57% 29.70 in 10.0 mi NNE 6.9 mph - N/A   Clear
9:53 AM 66.0 °F - 59.0 °F 78% 29.72 in 9.0 mi East 17.3 mph 27.6 mph N/A   Mostly Cloudy
10:21 AM 69.8 °F - 57.2 °F 64% 29.84 in 10.0 mi East 17.3 mph - N/A   Scattered Clouds
10:39 AM 69.8 °F - 59.0 °F 68% 29.84 in 10.0 mi ESE 15.0 mph - N/A   Mostly Cloudy
10:53 AM 72.0 °F - 59.0 °F 64% 29.67 in 10.0 mi ESE 15.0 mph - N/A   Scattered Clouds
11:53 AM 75.9 °F - 59.0 °F 56% 29.67 in 10.0 mi SSE 13.8 mph 20.7 mph N/A   Clear
12:53 PM 79.0 °F - 57.9 °F 48% 29.64 in 10.0 mi SSE 10.4 mph - N/A   Partly Cloudy
1:53 PM 81.0 °F - 46.9 °F 30% 29.60 in 10.0 mi SSW 4.6 mph - N/A   Clear
2:53 PM 80.1 °F 79.9 °F 53.1 °F 39% 29.56 in 10.0 mi ESE 10.4 mph 16.1 mph N/A   Partly Cloudy
3:36 PM 75.2 °F - 55.4 °F 50% 29.70 in 10.0 mi SSE 20.7 mph 28.8 mph N/A Thunderstorm Thunderstorm
3:53 PM 66.0 °F - 43.0 °F 43% 29.68 in 4.0 mi NW 24.2 mph 35.7 mph 0.06 in Rain , Thunderstorm Light Thunderstorms and Rain
3:57 PM 59.0 °F - 44.6 °F 59% 29.81 in 1.5 mi NW 19.6 mph 35.7 mph 0.09 in Rain , Thunderstorm Heavy Thunderstorms and Rain
4:10 PM 53.6 °F - 44.6 °F 72% 29.76 in 2.0 mi ENE 11.5 mph - 0.33 in Rain , Thunderstorm Thunderstorms and Rain
4:20 PM 53.6 °F - 44.6 °F 72% 29.75 in 3.0 mi East 21.9 mph 25.3 mph 0.40 in Rain , Thunderstorm Thunderstorms and Rain
4:53 PM 54.0 °F - 46.9 °F 77% 29.65 in 10.0 mi East 21.9 mph 29.9 mph 0.44 in Rain , Thunderstorm Light Rain
5:27 PM 55.4 °F - 48.2 °F 77% 29.83 in 10.0 mi ESE 18.4 mph - 0.00 in   Mostly Cloudy
5:53 PM 60.1 °F - 46.0 °F 60% 29.67 in 10.0 mi East 28.8 mph 36.8 mph 0.00 in   Overcast
6:18 PM 60.8 °F - 46.4 °F 59% 29.77 in 10.0 mi East 23.0 mph 36.8 mph N/A Thunderstorm Partly Cloudy
6:33 PM 60.8 °F - 46.4 °F 59% 29.78 in 10.0 mi ESE 19.6 mph - N/A   Clear
6:53 PM 59.0 °F - 48.0 °F 67% 29.67 in 10.0 mi ESE 18.4 mph - N/A   Clear
7:53 PM 59.0 °F - 48.0 °F 67% 29.65 in 10.0 mi East 8.1 mph - N/A   Clear
8:53 PM 55.9 °F - 48.0 °F 75% 29.64 in 10.0 mi South 3.5 mph - N/A   Clear
9:53 PM 52.0 °F - 46.9 °F 83% 29.68 in 10.0 mi North 10.4 mph - N/A   Clear
10:53 PM 50.0 °F - 46.9 °F 89% 29.68 in 10.0 mi NNW 5.8 mph - N/A   Clear
11:53 PM 48.9 °F - 45.0 °F 86% 29.66 in 10.0 mi Calm Calm - N/A   Clear